Regional Weather Roundup
Issued by NWS

Home | Current Version | Previous Version | Text Only | Print | Product List | Glossary On
Versions: 1 2 3 4 5 6 7 8 9 10 11 12 13 14 15 16 17 18 19 20 21 22 23 24 25 26 27 28 29 30 31 32 33 34 35 36 37 38 39 40 41 42 43 44 45 46 47 48 49 50
000
ASUS45 KREV 170910
RWRNV
NEVADA REGIONAL WEATHER ROUNDUP
NATIONAL WEATHER SERVICE RENO NV
100 AM PST TUE JAN 17 2017

NOTE: "FAIR" INDICATES FEW OR NO CLOUDS BELOW 12,000 FEET WITH NO
SIGNIFICANT WEATHER AND/OR OBSTRUCTIONS TO VISIBILITY.

NVZ001-003-004-171000-
WESTERN NEVADA

CITY           SKY/WX    TMP DP  RH WIND       PRES   REMARKS
RENO           MOCLDY    24  20  84 CALM      30.25F
CARSON CITY    CLOUDY    27  23  86 CALM      30.26F
MINDEN         CLOUDY    27  23  86 SW3       30.26F
PYRAMID LAKE     N/A     30 N/A N/A S8          N/A
FALLON         NOT AVBL
LOVELOCK       CLOUDY    25  21  85 NE5       30.28F
HAWTHORNE        N/A    N/A N/A N/A CALM      30.27F
$$

NVZ002-CAZ072-073-171000-
NORTHERN AND CENTRAL SIERRA

CITY           SKY/WX    TMP DP  RH WIND       PRES   REMARKS
S. LAKE TAHOE  PTCLDY    21  16  81 CALM      30.17F
TRUCKEE        FOG       16  14  93 CALM      30.21F VSB 1/4
SQUAW VLY 8000   N/A     25  21  86 SW1         N/A
SUSANVILLE     CLOUDY    32  27  80 CALM      30.25F
MAMMOTH LAKES  FAIR      17   2  53 W6        30.19R
BRIDGEPORT       N/A      3  -2  79 CALM      30.18F
$$

NVZ030-031-036-171000-
NORTHERN NEVADA

CITY           SKY/WX    TMP DP  RH WIND       PRES   REMARKS
ELKO           CLOUDY    18  13  80 E8        30.27R
WINNEMUCCA     CLEAR     18  17  96 CALM      30.27F
WENDOVER       CLOUDY    25  18  74 E7        30.28S
$$

NVZ035-037-171000-
CENTRAL NEVADA

CITY           SKY/WX    TMP DP  RH WIND       PRES   REMARKS
ELY            CLOUDY     3   0  87 S8        30.22F
EUREKA           N/A     14  11  87 CALM      30.21F
$$

NVZ013-014-171000-
SOUTH CENTRAL NEVADA

CITY           SKY/WX    TMP DP  RH WIND       PRES   REMARKS
TONOPAH        CLEAR     22  13  68 NW7       30.19F
$$

NVZ017-020-022-171000-
SOUTHERN NEVADA

CITY           SKY/WX    TMP DP  RH WIND       PRES   REMARKS
LAS VEGAS      CLEAR     42  22  44 S3        30.12S
N. LAS VEGAS   CLEAR     42  18  37 NW10      30.13S
NELLIS AFB     CLEAR     42  22  45 NE12      30.13S
HENDERSON      CLEAR     37  22  54 CALM      30.14F
MERCURY        NOT AVBL
$$



USA.gov is the U.S. government's official web portal to all federal, state and local government web resources and services.